Tracking 28126 objects as of 2-Oct-2023
HD Live streaming from Space Station
objects crossing your sky now

STARLINK-4296

Track STARLINK-4296 now!
10-day predictions
STARLINK-4296 is classified as:


NORAD ID: 52995
Int'l Code: 2022-076K
Perigee: 545.9 km
Apogee: 547.8 km
Inclination: 53.2 °
Period: 95.4 minutes
Semi major axis: 6917 km
RCS: Unknown
Launch date: July 7, 2022
Source: United States (US)
Launch site: AIR FORCE EASTERN TEST RANGE (AFETR)
Your satellite tracking list
Your tracking list is empty




NASA's NSSDC Master Catalog

Two Line Element Set (TLE):
1 52995U 22076K   23274.89018158  .00003240  00000-0  22154-3 0  9991
2 52995  53.2157 128.5839 0001376  89.0261 271.0888 15.08848582 68988
Source of the keplerian elements: AFSPC